Regional Weather Roundup
Issued by NWS Sioux Falls, SD

Home | Current Version | Previous Version | Graphics & Text | Print | Product List | Glossary Off
Versions: 1 2 3 4 5 6 7 8 9 10 11 12 13 14 15 16 17 18 19 20 21 22 23 24 25 26 27 28 29 30 31 32 33 34 35 36 37 38 39 40 41 42 43 44 45 46 47 48 49 50

000
ASUS43 KFSD 251502
RWRFSD

WEATHER ROUNDUP FOR SE SOUTH DAKOTA/SW MINNESOTA/NW IOWA
NATIONAL WEATHER SERVICE SIOUX FALLS SD
1000 AM CDT FRI JUL 25 2014

NOTE: "FAIR" INDICATES FEW OR NO CLOUDS BELOW 12,000 FEET WITH NO
SIGNIFICANT WEATHER AND OR OBSTRUCTIONS TO VISIBILITY.


SDZ038>040-050-052>070-251600-
SOUTHEAST SOUTH DAKOTA

CITY           SKY/WX    TMP DP  RH WIND       PRES   REMARKS
CHAMBERLAIN    SUNNY     77  66  68 NW9       29.79S
HURON          SUNNY     74  65  73 SW8       29.76R
MADISON        FAIR      72  68  88 S12G18    29.78S
MITCHELL       SUNNY     74  66  76 SE9       29.76S
SIOUX FALLS    MOSUNNY   72  64  76 S15       29.76S
WINNER         FAIR      79  65  62 N18G28    29.83R
YANKTON        SUNNY     73  64  73 SE12      29.75S
$$

MNZ071-072-080-081-089-090-097-098-251600-
SOUTHWEST MINNESOTA

CITY           SKY/WX    TMP DP  RH WIND       PRES   REMARKS
FAIRMONT       PTSUNNY   72  59  64 S17       29.80F
JACKSON        MOSUNNY   68  59  73 S18       29.81R
LUVERNE        SUNNY     70  61  73 S10G23    29.79R
MARSHALL       SUNNY     73  63  68 S15G21    29.77S
MONTEVIDEO     MOSUNNY   73  66  78 SW8       29.78F
PIPESTONE      SUNNY     70  63  78 S17G26    29.79R
REDWOOD FALLS  CLOUDY    72  63  73 S16       29.80R
TRACY          MOSUNNY   73  64  71 S13G18    29.80R
WINDOM         MOSUNNY   72  61  68 S17G23    29.80R
WORTHINGTON    MOSUNNY   70  61  73 S15G26    29.80R
$$

IAZ001>003-012>014-020>022-031-032-NEZ013-014-SDZ071-251600-
NORTHWEST IOWA

CITY           SKY/WX    TMP DP  RH WIND       PRES   REMARKS
CHEROKEE       PTSUNNY   69  61  75 SE20G29   29.80F
DENISON        CLOUDY    68  61  77 SE18G28   29.83F
ESTHERVILLE    MOSUNNY   68  60  75 S23G38    29.79F
LE MARS        SUNNY     72  63  73 SE21G29   29.77F
ORANGE CITY    SUNNY     70  59  68 SE17G23   29.79S
SHELDON        SUNNY     70  63  78 SE20G33   29.76F
SIOUX CITY     SUNNY     74  64  71 SE20G25   29.77S
SPENCER        SUNNY     71  60  68 S24G38    29.76F
STORM LAKE     CLOUDY    66  61  82 SE22G33   29.85F
$$

ABBREVIATIONS USED IN REMARKS
   TC - TEMPERATURE IN CELSIUS
  WCI - WIND CHILL INDEX
   HX - HEAT INDEX
  VSB - VISIBILITY




USA.gov is the U.S. government's official web portal to all federal, state and local government web resources and services.